Flag for United Kingdom Weather past 2 weeks in Sutton Coldfield, England, United Kingdom

55 °F


Feels Like: 55 °F
Forecast: 48 / 56 °F
Wind: No wind

Location: Birmingham / Airport

Current Time: Oct 6, 2015 at 8:43:03 PM

Latest Report: Oct 6, 2015 at 8:20 PM

Visibility: N/A

Pressure: 29.42 "Hg

Humidity: 100%

Dew point: 55 °F

Location of Sutton ColdfieldLocation

Historic Weather in Sutton Coldfield — Graph


Sutton Coldfield temperature yesterday

Maximum temperature yesterday: 66 °F (at 4:20 PM)
Minimum temperature yesterday: 52 °F (at 12:20 AM)
Average temperature yesterday: 59 °F

Past Weeks' High & Low Weather Summary

High66 °F (Oct 5, 4:20 PM)100% (Sep 21, 11:50 PM)30.66 "Hg (Sep 21, 11:50 PM)
Low39 °F (Sep 26, 3:50 AM)48% (Sep 24, 4:20 PM)29.36 "Hg (Oct 6, 1:50 PM)
Average54 °F82%30.13 "Hg
* Reported Sep 21 7:20 PM — Oct 6 7:20 PM, Sutton Coldfield, Weather by CustomWeather, © 2015

Note: Actual official high and low records may vary slightly from our data, if they occured in-between our weather recording intervals... More about our weather records


Sutton Coldfield weather history for previous 24 hours

Time TempWeatherWind HumidityBarometerVisibility
7:20 PM
Tue, Oct 6
55 °FPassing clouds.2 mph100%29.42 "HgN/A
6:50 PM55 °FPassing clouds.3 mph100%29.39 "HgN/A
6:20 PM57 °FScattered clouds.5 mph94%29.39 "HgN/A
5:50 PM57 °FScattered clouds.5 mph94%29.39 "HgN/A
5:20 PM57 °FLight rain. Broken clouds.8 mph88%29.39 "HgN/A
4:50 PM57 °FRain showers. Broken clouds.8 mph94%29.39 "Hg6 mi
4:20 PM59 °FRain showers. Broken clouds.9 mph94%29.39 "Hg3 mi
3:50 PM61 °FMixture of precip. Broken clouds.6 mph94%29.36 "Hg6 mi
3:20 PM61 °FSprinkles. Broken clouds.9 mph94%29.36 "HgN/A
2:50 PM61 °FBroken clouds.8 mph94%29.36 "HgN/A
2:20 PM61 °FLight rain. Broken clouds.8 mph94%29.36 "HgN/A
1:50 PM59 °FLight rain. Partly sunny.7 mph100%29.36 "HgN/A
1:20 PM59 °FRain. Broken clouds.9 mph94%29.39 "Hg3 mi
12:50 PM61 °FRain. Mostly cloudy.9 mph94%29.39 "Hg2 mi
12:20 PM61 °FLight rain. Broken clouds.9 mph94%29.39 "Hg5 mi
11:50 AM61 °FMostly cloudy.8 mph94%29.39 "HgN/A
11:20 AM61 °FLight rain. Mostly cloudy.7 mph94%29.39 "Hg6 mi
10:50 AM61 °FMostly cloudy.7 mph88%29.39 "HgN/A
10:20 AM59 °FMostly cloudy.10 mph100%29.42 "Hg6 mi
9:50 AM59 °FBroken clouds.14 mph94%29.42 "Hg6 mi
9:20 AM59 °FBroken clouds.12 mph94%29.42 "Hg4 mi
8:50 AM57 °FBroken clouds.13 mph100%29.42 "Hg5 mi
8:20 AM57 °FPassing clouds.7 mph100%29.42 "Hg5 mi
7:50 AM57 °FPassing clouds.8 mph100%29.42 "Hg6 mi
7:20 AM55 °FPassing clouds.6 mph100%29.42 "Hg4 mi
6:50 AM57 °FPassing clouds.6 mph94%29.42 "HgN/A
6:20 AM59 °FPassing clouds.7 mph94%29.42 "HgN/A
5:20 AM59 °FLight rain. Partly cloudy.8 mph100%29.42 "HgN/A
4:50 AM59 °FPartly cloudy.8 mph100%29.42 "HgN/A
4:20 AM61 °FLight rain. Mostly cloudy.9 mph94%29.45 "Hg4 mi
3:50 AM61 °FPassing clouds.8 mph94%29.45 "HgN/A
3:20 AM59 °FPassing clouds.9 mph100%29.45 "HgN/A
2:50 AM59 °FDrizzle. Mostly cloudy.10 mph100%29.45 "Hg3 mi
2:20 AM59 °FLight rain. Mostly cloudy.9 mph100%29.45 "Hg4 mi
1:50 AM61 °FLight rain. Mostly cloudy.12 mph94%29.47 "HgN/A
1:20 AM59 °FLight rain. Mostly cloudy.10 mph100%29.47 "Hg2 mi
12:50 AM61 °FFog.12 mph94%29.47 "Hg3 mi
12:20 AM61 °FLight rain. Mostly cloudy.12 mph94%29.47 "Hg2 mi
11:50 PM
Mon, Oct 5
61 °FMostly cloudy.10 mph94%29.47 "HgN/A
11:20 PM61 °FHeavy rain. Mostly cloudy.12 mph94%29.47 "Hg1 mi
10:20 PM61 °FLight rain. Mostly cloudy.12 mph94%29.50 "Hg3 mi
9:50 PM61 °FLight rain. Partly cloudy.10 mph100%29.50 "Hg2 mi
9:20 PM61 °FPartly cloudy.10 mph100%29.53 "Hg2 mi
8:50 PM61 °FDrizzle. Mostly cloudy.10 mph100%29.53 "Hg2 mi
8:20 PM61 °FDrizzle. Mostly cloudy.13 mph100%29.53 "Hg2 mi
Weather by CustomWeather, © 2015

See weather overviewHow to use our weather pages